Regional Weather Roundup
Issued by NWS

Home | Current Version | Previous Version | Text Only | Print | Product List | Glossary On
Versions: 1 2 3 4 5 6 7 8 9 10 11 12 13 14 15 16 17 18 19 20 21 22 23 24 25 26 27 28 29 30 31 32 33 34 35 36 37 38 39 40 41 42 43 44 45 46 47 48 49 50
102
ASUS43 KMKX 301321
RWRWI

WISCONSIN REGIONAL WEATHER ROUNDUP
NATIONAL WEATHER SERVICE MILWAUKEE/SULLIVAN WI
800 AM CDT MON MAY 30 2016

NOTE: "FAIR" INDICATES FEW OR NO CLOUDS BELOW 12,000 FEET WITH NO
SIGNIFICANT WEATHER AND/OR OBSTRUCTIONS TO VISIBILITY.

WIZ001-002-006>008-014>016-023>028-301400-
NORTHWEST WISCONSIN

CITY           SKY/WX    TMP DP  RH WIND       PRES   REMARKS
SUPERIOR ARPT  SUNNY     60  55  82 SW6       29.98S
ASHLAND        SUNNY     62  54  74 SW6       29.98S
HAYWARD        SUNNY     58  54  86 S5        30.01S
SIREN          MOSUNNY   63  56  77 W5        30.01R
CUMBERLAND     SUNNY     59  55  88 CALM      30.02S
RICE LAKE      SUNNY     60  55  83 CALM      30.04R
CHETEK         SUNNY     59  58  99 CALM      30.02S
LADYSMITH      SUNNY     60  57  88 CALM      30.03S
EAU CLAIRE     CLOUDY    63  59  87 CALM      30.01R
MENOMONIE      CLOUDY    63  60  88 CALM      30.02S
NEW RICHMOND   SUNNY     62  60  93 SW3       30.02S
OSCEOLA        SUNNY     61  61 100 CALM      30.04S
$$

WIZ003>005-009-010-017-018-301400-
NORTH CENTRAL WISCONSIN

CITY           SKY/WX    TMP DP  RH WIND       PRES   REMARKS
MANITOWISH WTR NOT AVBL
ARBOR VITAE    SUNNY     62  55  77 W3        30.01S
WOODRUFF       SUNNY     62  55  77 W3        30.01S
RHINELANDER    SUNNY     62  53  72 NW8       30.01S
EAGLE RIVER      N/A     60  53  77 W9        30.01R
LAND O LAKES   SUNNY     60  54  80 W3        30.01R
PHILLIPS       SUNNY     61  55  81 CALM      30.01S
TOMAHAWK       SUNNY     59  55  87 NW5       30.02F
MEDFORD        SUNNY     61  56  84 W5        30.02R
MERRILL        SUNNY    N/A N/A N/A CALM      30.02S
$$

WIZ029-030-035-036-043>047-301400-
CENTRAL WISCONSIN

CITY           SKY/WX    TMP DP  RH WIND       PRES   REMARKS
WAUSAU         SUNNY     64  56  75 W3        30.00S
MOSINEE        SUNNY     63  57  82 NW3       30.02S
MARSHFIELD     SUNNY     61  56  83 W5        30.02S
STEVENS POINT  SUNNY     63  57  80 N5        30.02F
WAUPACA        SUNNY     69  59  70 NW5       30.01S
WAUTOMA        SUNNY     64  59  83 W6        30.03R
WISC RAPIDS    SUNNY     67  56  67 CALM      30.03S
CAMP DOUGLAS   CLOUDY    67  67 100 NW3       30.03R
$$

WIZ011>013-019>022-031-037>040-048>050-301400-
NORTHEAST WISCONSIN

CITY           SKY/WX    TMP DP  RH WIND       PRES   REMARKS
ANTIGO         SUNNY     61  55  80 NW6       30.02S
SHAWANO        MOSUNNY   65  58  76 W6        30.01R
OCONTO         SUNNY     64  64 100 W7        29.99S
STURGEON BAY   NOT AVBL
GREEN BAY      SUNNY     66  59  78 NW7       30.00R
MANITOWOC      MOSUNNY   67  59  75 W9        30.00S
APPLETON       MOSUNNY   64  55  72 W7        30.00R
CLINTONVILLE   SUNNY     64  55  72 NW6       30.01S
OSHKOSH        MOSUNNY   67  60  78 W7        30.01R
$$

WIZ032>034-041-042-053>061-301400-
SOUTHWEST WISCONSIN

CITY           SKY/WX    TMP DP  RH WIND       PRES   REMARKS
LA CROSSE      CLOUDY    62  60  93 S7        30.03R
SPARTA         CLOUDY    61  58  91 CALM      30.04S
VIROQUA        CLOUDY    65  59  80 CALM      30.05R
BOSCOBEL       CLOUDY    61  60  97 CALM      30.04S
PRAIRIE DU CHI MOSUNNY   62  59  88 CALM      30.05R
PLATTEVILLE    SUNNY     66  62  87 N5        30.05R
$$

WIZ056-057-062-063-064-067-068-301400-
SOUTH CENTRAL WISCONSIN

CITY           SKY/WX    TMP DP  RH WIND       PRES   REMARKS
REEDSBURG      SUNNY     65  61  87 CALM      30.03S
BARABOO/DELLS  SUNNY     67  58  72 W3        30.03S
LONE ROCK      FOG       60  59  96 W3        30.04S VSB 1/2
MINERAL POINT  SUNNY     68  63  83 CALM      30.05S
MADISON        MOSUNNY   67  61  81 NW3       30.03R
MIDDLETON      SUNNY     69  61  75 W5        30.04S
WATERTOWN      SUNNY     66  62  87 W3        30.03R
MONROE         SUNNY     70  57  64 W9        30.04S
JANESVILLE     SUNNY     68  63  83 CALM      30.02S
$$

WIZ051-052-058>065-066-070>072-301400-
SOUTHEAST WISCONSIN

CITY           SKY/WX    TMP DP  RH WIND       PRES   REMARKS
MILWAUKEE      MOSUNNY   71  59  65 NW7       30.02R
WAUKESHA       SUNNY     66  57  72 CALM      30.04R
MILWAUKEE/TIMM SUNNY     68  55  64 MISG      30.03R
RACINE         SUNNY     70  58  65 W7        30.04R
BURLINGTON     SUNNY     66  60  79 CALM      30.03R
KENOSHA        SUNNY     71  60  68 CALM      30.03R
FOND DU LAC    MOSUNNY   66  60  81 S3        30.02R
SHEBOYGAN      PTSUNNY   68  61  78 W3        30.01R
WEST BEND      SUNNY     68  59  73 CALM      30.02S
JUNEAU         SUNNY     65  60  83 CALM      30.04R
$$

LSZ147-162-301400-
LAKE SUPERIOR

STATION/POSITION TIME  TEMP    WIND        PRES    WAVE
                       AIR SEA DIR/SP/G            HT/PER
                 (UTC) (F)     (DEG/KT/KT) (MB)    (FT/S)
W MID LAKE BUOY  1250   44 38  250/ 12/ 14 1013.8R   1/ 3
DEVILS ISLAND    1300   54     240/ 18/ 19 1014.3S
SAXON HARBOR     1200   61     200/  7/ 10 1014.2R
$$

LMZ867-665-643>646-301400-
LAKE MICHIGAN

STATION/POSITION TIME  TEMP    WIND        PRES    WAVE
                       AIR SEA DIR/SP/G            HT/PER
                 (UTC) (F)     (DEG/KT/KT) (MB)    (FT/S)
CHAMBERS ISLAND  1200   62     190/  4/  7 1014.9R
N MID LAKE BUOY  1250   52 48  230/  8/  8 1014.2R   1/ 4
NORTHPORT PIER   1200   64     250/  3/  8 1014.6R
KEWAUNEE LAKESHO 1200   63     290/  4/  6 1014.8R
SHEBOYGAN LAKESH 1300   68     280/  9/ 10 1016.1R
PORT WASHINGTON  1240   71     290/  6/  8 1016.9R
S MID LAKE BUOY  1250   56 51  220/  4/  4 1016.3R   0
KENOSHA   LAKESH 1300   71     300/  7/  8 1016.6R
$$

TC  - TEMPERATURE IN CELSIUS
VSB - VISIBILITY IN STATUTE MILES
WCI - WIND CHILL INDEX
HX  - HEAT INDEX





USA.gov is the U.S. government's official web portal to all federal, state and local government web resources and services.